| time (UTC) | temp C | wind direction | speed KPH | gust KPH | rain 1hr cm | rain 24hr cm | rain mn cm | humidity % | barometer mb |
| 20260506114040 | 17 | 173 | 1.6 | 6.4 | 0.00 | 0.00 | 0.00 | 5 | 1012.1 |
| 20260506113539 | 17 | 177 | 1.6 | 4.8 | 0.00 | 0.00 | 0.00 | 5 | 1012.1 |
| 20260506113038 | 17 | 173 | 1.6 | 11.3 | 0.00 | 0.00 | 0.00 | 5 | 1012.0 |
| 20260506112536 | 17 | 170 | 3.2 | 11.3 | 0.00 | 0.00 | 0.00 | 6 | 1012.1 |
| 20260506112034 | 17 | 154 | 1.6 | 9.7 | 0.00 | 0.00 | 0.00 | 7 | 1012.1 |
| 20260506111533 | 17 | 150 | 1.6 | 8.0 | 0.00 | 0.00 | 0.00 | 7 | 1012.1 |
| 20260506111032 | 17 | 241 | 1.6 | 9.7 | 0.00 | 0.00 | 0.00 | 8 | 1012.0 |
| 20260506110530 | 17 | 194 | 3.2 | 9.7 | 0.00 | 0.00 | 0.00 | 9 | 1012.0 |
| 20260506110030 | 17 | 171 | 3.2 | 9.7 | 0.00 | 0.00 | 0.00 | 9 | 1012.0 |
| 20260506105527 | 17 | 157 | 3.2 | 11.3 | 0.00 | 0.00 | 0.00 | 10 | 1012.2 |
| 20260506105025 | 17 | 199 | 3.2 | 8.0 | 0.00 | 0.00 | 0.00 | 11 | 1012.2 |
| 20260506104548 | 17 | 144 | 3.2 | 9.7 | 0.00 | 0.00 | 0.00 | 11 | 1012.3 |
| 20260506104023 | 17 | 192 | 1.6 | 11.3 | 0.00 | 0.00 | 0.00 | 11 | 1012.3 |
| 20260506103521 | 17 | 191 | 0.0 | 11.3 | 0.00 | 0.00 | 0.00 | 12 | 1012.4 |
| 20260506103019 | 17 | 167 | 3.2 | 11.3 | 0.00 | 0.00 | 0.00 | 12 | 1012.4 |
| 20260506102519 | 17 | 186 | 1.6 | 6.4 | 0.00 | 0.00 | 0.00 | 12 | 1012.4 |
| 20260506102017 | 17 | 184 | 3.2 | 8.0 | 0.00 | 0.00 | 0.00 | 12 | 1012.3 |
| 20260506101516 | 17 | 208 | 1.6 | 12.9 | 0.00 | 0.00 | 0.00 | 13 | 1012.2 |
| 20260506101013 | 17 | 215 | 1.6 | 6.4 | 0.00 | 0.00 | 0.00 | 13 | 1012.1 |
| 20260506100515 | 17 | 202 | 1.6 | 11.3 | 0.00 | 0.00 | 0.00 | 13 | 1012.0 |
| 20260506100011 | 17 | 172 | 1.6 | 9.7 | 0.00 | 0.00 | 0.00 | 13 | 1012.0 |
| 20260506095512 | 17 | 188 | 1.6 | 14.5 | 0.00 | 0.00 | 0.00 | 12 | 1012.0 |
| 20260506095009 | 17 | 171 | 4.8 | 11.3 | 0.00 | 0.00 | 0.00 | 12 | 1012.1 |
| 20260506094507 | 17 | 179 | 1.6 | 11.3 | 0.00 | 0.00 | 0.00 | 11 | 1012.0 |
| 20260506094005 | 17 | 207 | 1.6 | 6.4 | 0.00 | 0.00 | 0.00 | 11 | 1012.0 |
| 20260506093504 | 17 | 126 | 3.2 | 12.9 | 0.00 | 0.00 | 0.00 | 10 | 1011.9 |
| 20260506093003 | 17 | 181 | 3.2 | 8.0 | 0.00 | 0.00 | 0.00 | 10 | 1012.0 |
| 20260506092501 | 17 | 206 | 1.6 | 11.3 | 0.00 | 0.00 | 0.00 | 9 | 1011.8 |
| 20260506092100 | 17 | 180 | 3.2 | 12.9 | 0.00 | 0.00 | 0.00 | 8 | 1011.8 |
| 20260506091602 | 17 | 205 | 3.2 | 12.9 | 0.00 | 0.00 | 0.00 | 6 | 1011.8 |
| 20260506091057 | 17 | 181 | 3.2 | 8.0 | 0.00 | 0.00 | 0.00 | 6 | 1012.0 |
| 20260506090555 | 17 | 174 | 1.6 | 11.3 | 0.00 | 0.00 | 0.00 | 5 | 1012.1 |
| 20260506090054 | 17 | 155 | 3.2 | 12.9 | 0.00 | 0.00 | 0.00 | 5 | 1012.2 |
| 20260506085552 | 17 | 192 | 3.2 | 12.9 | 0.00 | 0.00 | 0.00 | 5 | 1012.0 |
| 20260506085054 | 17 | 176 | 1.6 | 16.1 | 0.00 | 0.00 | 0.00 | 5 | 1012.1 |
| 20260506084551 | 17 | 178 | 3.2 | 16.1 | 0.00 | 0.00 | 0.00 | 5 | 1012.2 |
| 20260506084048 | 17 | 178 | 1.6 | 12.9 | 0.00 | 0.00 | 0.00 | 5 | 1012.3 |
| 20260506083547 | 17 | 198 | 3.2 | 12.9 | 0.00 | 0.00 | 0.00 | 5 | 1012.3 |
| 20260506083048 | 17 | 161 | 1.6 | 11.3 | 0.00 | 0.00 | 0.00 | 6 | 1012.5 |
| 20260506082544 | 17 | 156 | 3.2 | 11.3 | 0.00 | 0.00 | 0.00 | 7 | 1012.4 |
| 20260506082044 | 17 | 71 | 1.6 | 9.7 | 0.00 | 0.00 | 0.00 | 8 | 1012.5 |
| 20260506081543 | 17 | 174 | 0.0 | 9.7 | 0.00 | 0.00 | 0.00 | 9 | 1012.4 |
| 20260506081043 | 17 | 173 | 1.6 | 6.4 | 0.00 | 0.00 | 0.00 | 10 | 1012.4 |
| 20260506080543 | 17 | 182 | 1.6 | 6.4 | 0.00 | 0.00 | 0.00 | 12 | 1012.4 |
| 20260506073036 | 18 | 144 | 3.2 | 12.9 | 0.00 | 0.00 | 0.00 | 18 | 1012.4 |
| 20260506072536 | 18 | 158 | 1.6 | 9.7 | 0.00 | 0.00 | 0.00 | 19 | 1012.4 |
| 20260506072036 | 18 | 191 | 3.2 | 11.3 | 0.00 | 0.00 | 0.00 | 19 | 1012.6 |
| 20260506071536 | 18 | 124 | 1.6 | 11.3 | 0.00 | 0.00 | 0.00 | 20 | 1012.6 |
| 20260506071034 | 18 | 165 | 3.2 | 11.3 | 0.00 | 0.00 | 0.00 | 20 | 1012.6 |
| 20260506070536 | 18 | 154 | 1.6 | 6.4 | 0.00 | 0.00 | 0.00 | 21 | 1012.5 |
| 20260506062028 | 18 | 205 | 3.2 | 6.4 | 0.00 | 0.00 | 0.00 | 25 | 1012.9 |
| 20260506061527 | 18 | 138 | 1.6 | 11.3 | 0.00 | 0.00 | 0.00 | 27 | 1012.8 |
| 20260506061028 | 18 | 194 | 4.8 | 11.3 | 0.00 | 0.00 | 0.00 | 28 | 1012.7 |
| 20260506060526 | 18 | 152 | 1.6 | 8.0 | 0.00 | 0.00 | 0.00 | 30 | 1012.8 |
| 20260506051016 | 20 | 140 | 3.2 | 11.3 | 0.00 | 0.00 | 0.00 | 42 | 1013.2 |
| 20260506050516 | 20 | 173 | 1.6 | 12.9 | 0.00 | 0.00 | 0.00 | 43 | 1013.3 |
| 20260506045013 | 20 | 182 | 1.6 | 11.3 | 0.00 | 0.00 | 0.00 | 45 | 1013.4 |
| 20260506044513 | 20 | 90 | 3.2 | 11.3 | 0.00 | 0.00 | 0.00 | 45 | 1013.4 |
| 20260506044012 | 20 | 240 | 1.6 | 11.3 | 0.00 | 0.00 | 0.00 | 46 | 1013.4 |
| 20260506043516 | 20 | 245 | 1.6 | 19.3 | 0.00 | 0.00 | 0.00 | 46 | 1013.5 |
| 20260506043016 | 20 | 179 | 4.8 | 19.3 | 0.00 | 0.00 | 0.00 | 47 | 1013.5 |
| 20260506042515 | 20 | 191 | 3.2 | 12.9 | 0.00 | 0.00 | 0.00 | 48 | 1013.5 |
| 20260506042010 | 20 | 159 | 3.2 | 12.9 | 0.00 | 0.00 | 0.00 | 49 | 1013.4 |
| 20260506041510 | 20 | 198 | 1.6 | 11.3 | 0.00 | 0.00 | 0.00 | 51 | 1013.3 |
| 20260506041008 | 20 | 198 | 3.2 | 11.3 | 0.00 | 0.00 | 0.00 | 52 | 1013.4 |
| 20260506040508 | 20 | 212 | 3.2 | 11.3 | 0.00 | 0.00 | 0.00 | 53 | 1013.4 |
| 20260506040008 | 20 | 150 | 1.6 | 8.0 | 0.00 | 0.00 | 0.00 | 54 | 1013.4 |
| 20260506035506 | 21 | 196 | 3.2 | 8.0 | 0.00 | 0.00 | 0.00 | 54 | 1013.4 |
| 20260506035006 | 21 | 162 | 3.2 | 6.4 | 0.00 | 0.00 | 0.00 | 55 | 1013.3 |
| 20260506034506 | 21 | 194 | 0.0 | 6.4 | 0.00 | 0.00 | 0.00 | 55 | 1013.4 |
| 20260506034005 | 21 | 171 | 1.6 | 6.4 | 0.00 | 0.00 | 0.00 | 55 | 1013.4 |
| 20260506033606 | 21 | 235 | 1.6 | 11.3 | 0.00 | 0.00 | 0.00 | 55 | 1013.4 |
| 20260506033006 | 21 | 136 | 1.6 | 6.4 | 0.00 | 0.00 | 0.00 | 55 | 1013.4 |
| 20260506032505 | 21 | 198 | 3.2 | 6.4 | 0.00 | 0.00 | 0.00 | 55 | 1013.4 |
| 20260506032005 | 21 | 185 | 1.6 | 9.7 | 0.00 | 0.00 | 0.00 | 55 | 1013.4 |
| 20260506031505 | 21 | 155 | 3.2 | 8.0 | 0.00 | 0.00 | 0.00 | 55 | 1013.4 |
| 20260506031005 | 21 | 196 | 1.6 | 11.3 | 0.00 | 0.00 | 0.00 | 55 | 1013.3 |
| 20260506030504 | 21 | 167 | 3.2 | 11.3 | 0.00 | 0.00 | 0.00 | 55 | 1013.3 |
| 20260506030004 | 21 | 200 | 1.6 | 8.0 | 0.00 | 0.00 | 0.00 | 54 | 1013.2 |
| 20260506025506 | 21 | 186 | 3.2 | 8.0 | 0.00 | 0.00 | 0.00 | 54 | 1013.2 |
| 20260506025003 | 21 | 159 | 1.6 | 6.4 | 0.00 | 0.00 | 0.00 | 54 | 1013.3 |
| 20260506024511 | 21 | 134 | 1.6 | 11.3 | 0.00 | 0.00 | 0.00 | 54 | 1013.4 |
| 20260506024105 | 21 | 168 | 1.6 | 11.3 | 0.00 | 0.00 | 0.00 | 54 | 1013.4 |
| 20260506023605 | 21 | 182 | 1.6 | 9.7 | 0.00 | 0.00 | 0.00 | 53 | 1013.4 |
| 20260506023002 | 22 | 155 | 1.6 | 12.9 | 0.00 | 0.00 | 0.00 | 53 | 1013.4 |
| 20260506022502 | 22 | 225 | 4.8 | 12.9 | 0.00 | 0.00 | 0.00 | 53 | 1013.3 |
| 20260506022002 | 22 | 153 | 3.2 | 9.7 | 0.00 | 0.00 | 0.00 | 53 | 1013.4 |
| 20260506021504 | 22 | 177 | 0.0 | 9.7 | 0.00 | 0.00 | 0.00 | 53 | 1013.3 |
| 20260506021002 | 22 | 194 | 1.6 | 8.0 | 0.00 | 0.00 | 0.00 | 53 | 1013.3 |
| 20260506020502 | 22 | 172 | 3.2 | 11.3 | 0.00 | 0.00 | 0.00 | 52 | 1013.2 |
| 20260506020002 | 22 | 207 | 1.6 | 8.0 | 0.00 | 0.00 | 0.00 | 52 | 1013.2 |
| 20260506015601 | 22 | 207 | 1.6 | 8.0 | 0.00 | 0.00 | 0.00 | 52 | 1013.2 |
| 20260506015101 | 22 | 159 | 1.6 | 4.8 | 0.00 | 0.00 | 0.00 | 51 | 1013.2 |
| 20260506014600 | 22 | 109 | 1.6 | 12.9 | 0.00 | 0.00 | 0.00 | 51 | 1013.0 |
| 20260506014100 | 22 | 173 | 1.6 | 12.9 | 0.00 | 0.00 | 0.00 | 51 | 1013.0 |
| 20260506013600 | 22 | 175 | 1.6 | 4.8 | 0.00 | 0.00 | 0.00 | 51 | 1013.1 |
| 20260506013100 | 22 | 175 | 1.6 | 12.9 | 0.00 | 0.00 | 0.00 | 51 | 1013.0 |
| 20260506012600 | 22 | 217 | 3.2 | 17.7 | 0.00 | 0.00 | 0.00 | 50 | 1012.9 |
| 20260506012103 | 22 | 44 | 3.2 | 17.7 | 0.00 | 0.00 | 0.00 | 50 | 1012.9 |
| 20260506011600 | 22 | 168 | 0.0 | 14.5 | 0.00 | 0.00 | 0.00 | 49 | 1012.7 |
| 20260506011059 | 22 | 159 | 1.6 | 11.3 | 0.00 | 0.00 | 0.00 | 49 | 1012.7 |
| 20260506010559 | 23 | 159 | 0.0 | 14.5 | 0.00 | 0.00 | 0.00 | 49 | 1012.7 |
| 20260506005559 | 23 | 145 | 1.6 | 8.0 | 0.00 | 0.00 | 0.00 | 48 | 1012.6 |
| 20260506005058 | 23 | 160 | 1.6 | 9.7 | 0.00 | 0.00 | 0.00 | 48 | 1012.5 |
| 20260506004603 | 23 | 147 | 0.0 | 6.4 | 0.00 | 0.00 | 0.00 | 48 | 1012.5 |
| 20260506004058 | 23 | 157 | 0.0 | 8.0 | 0.00 | 0.00 | 0.00 | 47 | 1012.5 |
| 20260506003601 | 23 | 177 | 3.2 | 8.0 | 0.00 | 0.00 | 0.00 | 47 | 1012.4 |
| 20260506003116 | 23 | 169 | 1.6 | 8.0 | 0.00 | 0.00 | 0.00 | 47 | 1012.3 |
| 20260506002601 | 23 | 127 | 0.0 | 8.0 | 0.00 | 0.00 | 0.00 | 47 | 1012.4 |
| 20260506002058 | 23 | 155 | 1.6 | 9.7 | 0.00 | 0.00 | 0.00 | 46 | 1012.5 |
| 20260506001618 | 23 | 180 | 1.6 | 9.7 | 0.00 | 0.00 | 0.00 | 46 | 1012.3 |
| 20260506001058 | 24 | 171 | 0.0 | 4.8 | 0.00 | 0.00 | 0.00 | 46 | 1012.3 |
| 20260506000558 | 24 | 192 | 1.6 | 8.0 | 0.00 | 0.00 | 0.00 | 45 | 1012.3 |
| 20260506000105 | 24 | 128 | 1.6 | 8.0 | 0.00 | 0.00 | 0.00 | 45 | 1012.2 |
| 20260505235557 | 24 | 217 | 3.2 | 11.3 | 0.00 | 0.00 | 0.00 | 45 | 1012.2 |
| 20260505235056 | 24 | 169 | 1.6 | 11.3 | 0.00 | 0.00 | 0.00 | 45 | 1012.3 |
| 20260505234612 | 24 | 217 | 1.6 | 9.7 | 0.00 | 0.00 | 0.00 | 44 | 1012.3 |
| 20260505234057 | 25 | 188 | 0.0 | 6.4 | 0.00 | 0.00 | 0.00 | 44 | 1012.1 |
| 20260505233557 | 25 | 160 | 1.6 | 12.9 | 0.00 | 0.00 | 0.00 | 44 | 1012.1 |
| 20260505233057 | 25 | 137 | 1.6 | 14.5 | 0.00 | 0.00 | 0.00 | 43 | 1012.1 |
| 20260505232556 | 25 | 107 | 1.6 | 6.4 | 0.00 | 0.00 | 0.00 | 43 | 1012.1 |
| 20260505232058 | 25 | 150 | 1.6 | 14.5 | 0.00 | 0.00 | 0.00 | 43 | 1012.1 |
| 20260505231556 | 25 | 170 | 3.2 | 14.5 | 0.00 | 0.00 | 0.00 | 42 | 1012.2 |
| 20260505231055 | 25 | 183 | 3.2 | 9.7 | 0.00 | 0.00 | 0.00 | 41 | 1012.1 |
| 20260505230555 | 25 | 45 | 3.2 | 9.7 | 0.00 | 0.00 | 0.00 | 42 | 1012.1 |
| 20260505230055 | 25 | 133 | 1.6 | 8.0 | 0.00 | 0.00 | 0.00 | 41 | 1012.1 |
| 20260505225558 | 25 | 157 | 1.6 | 11.3 | 0.00 | 0.00 | 0.00 | 41 | 1012.0 |
| 20260505225055 | 25 | 219 | 4.8 | 11.3 | 0.00 | 0.00 | 0.00 | 40 | 1012.1 |
| 20260505224555 | 25 | 146 | 1.6 | 9.7 | 0.00 | 0.00 | 0.00 | 40 | 1012.1 |
| 20260505224055 | 26 | 182 | 4.8 | 11.3 | 0.00 | 0.00 | 0.00 | 39 | 1012.1 |
| 20260505223554 | 26 | 153 | 3.2 | 19.3 | 0.00 | 0.00 | 0.00 | 39 | 1012.1 |
| 20260505223105 | 26 | 37 | 1.6 | 19.3 | 0.00 | 0.00 | 0.00 | 39 | 1012.1 |
| 20260505222551 | 26 | 152 | 1.6 | 14.5 | 0.00 | 0.00 | 0.00 | 39 | 1012.1 |
| 20260505222049 | 26 | 203 | 6.4 | 14.5 | 0.00 | 0.00 | 0.00 | 38 | 1012.0 |
| 20260505221548 | 26 | 165 | 1.6 | 16.1 | 0.00 | 0.00 | 0.00 | 37 | 1012.0 |
| 20260505221047 | 26 | 147 | 6.4 | 16.1 | 0.00 | 0.00 | 0.00 | 37 | 1012.0 |
| 20260505220544 | 26 | 229 | 3.2 | 19.3 | 0.00 | 0.00 | 0.00 | 38 | 1011.9 |
| 20260505220047 | 26 | 186 | 3.2 | 19.3 | 0.00 | 0.00 | 0.00 | 37 | 1011.9 |
| 20260505215542 | 26 | 174 | 4.8 | 14.5 | 0.00 | 0.00 | 0.00 | 36 | 1011.9 |
| 20260505215040 | 26 | 153 | 4.8 | 17.7 | 0.00 | 0.00 | 0.00 | 35 | 1011.9 |
| 20260505214552 | 26 | 215 | 1.6 | 24.1 | 0.00 | 0.00 | 0.00 | 34 | 1011.8 |
| 20260505214041 | 26 | 174 | 8.0 | 24.1 | 0.00 | 0.00 | 0.00 | 33 | 1011.8 |
| 20260505213536 | 26 | 230 | 3.2 | 16.1 | 0.00 | 0.00 | 0.00 | 33 | 1011.9 |
| 20260505213034 | 27 | 260 | 6.4 | 16.1 | 0.00 | 0.00 | 0.00 | 32 | 1012.0 |
| 20260505212533 | 27 | 198 | 3.2 | 11.3 | 0.00 | 0.00 | 0.00 | 32 | 1011.9 |
| 20260505212034 | 27 | 230 | 3.2 | 8.0 | 0.00 | 0.00 | 0.00 | 32 | 1011.9 |
| 20260505211540 | 27 | 195 | 3.2 | 6.4 | 0.00 | 0.00 | 0.00 | 32 | 1011.9 |
| 20260505211028 | 27 | 182 | 1.6 | 14.5 | 0.00 | 0.00 | 0.00 | 32 | 1012.0 |
| 20260505210530 | 27 | 167 | 3.2 | 14.5 | 0.00 | 0.00 | 0.00 | 30 | 1011.9 |
| 20260505210025 | 27 | 201 | 3.2 | 29.0 | 0.00 | 0.00 | 0.00 | 30 | 1011.9 |
| 20260505205524 | 27 | 90 | 3.2 | 29.0 | 0.00 | 0.00 | 0.00 | 30 | 1012.0 |
| 20260505205021 | 28 | 150 | 4.8 | 22.5 | 0.00 | 0.00 | 0.00 | 30 | 1011.9 |
| 20260505204522 | 28 | 171 | 4.8 | 16.1 | 0.00 | 0.00 | 0.00 | 30 | 1011.9 |
| 20260505204019 | 28 | 216 | 3.2 | 8.0 | 0.00 | 0.00 | 0.00 | 30 | 1011.8 |
| 20260505203517 | 28 | 206 | 3.2 | 8.0 | 0.00 | 0.00 | 0.00 | 30 | 1011.7 |
| 20260505203016 | 28 | 188 | 3.2 | 8.0 | 0.00 | 0.00 | 0.00 | 28 | 1011.8 |
| 20260505202515 | 28 | 245 | 3.2 | 9.7 | 0.00 | 0.00 | 0.00 | 28 | 1011.7 |
| 20260505202014 | 29 | 247 | 1.6 | 9.7 | 0.00 | 0.00 | 0.00 | 27 | 1011.8 |
| 20260505201512 | 29 | 146 | 4.8 | 11.3 | 0.00 | 0.00 | 0.00 | 27 | 1012.0 |
| 20260505201013 | 29 | 186 | 3.2 | 12.9 | 0.00 | 0.00 | 0.00 | 27 | 1011.9 |
| 20260505200509 | 29 | 251 | 3.2 | 14.5 | 0.00 | 0.00 | 0.00 | 26 | 1012.0 |
| 20260505200008 | 30 | 161 | 4.8 | 14.5 | 0.00 | 0.00 | 0.00 | 25 | 1012.0 |
| 20260505195506 | 30 | 192 | 3.2 | 12.9 | 0.00 | 0.00 | 0.00 | 26 | 1012.2 |
| 20260505195004 | 30 | 221 | 6.4 | 17.7 | 0.00 | 0.00 | 0.00 | 27 | 1012.2 |
| 20260505194504 | 30 | 61 | 4.8 | 29.0 | 0.00 | 0.00 | 0.00 | 27 | 1012.3 |
| 20260505194001 | 30 | 211 | 6.4 | 29.0 | 0.00 | 0.00 | 0.00 | 26 | 1012.3 |
| 20260505193600 | 30 | 234 | 4.8 | 24.1 | 0.00 | 0.00 | 0.00 | 26 | 1012.2 |
| 20260505193059 | 30 | 172 | 8.0 | 24.1 | 0.00 | 0.00 | 0.00 | 26 | 1012.3 |
| 20260505192559 | 30 | 243 | 4.8 | 14.5 | 0.00 | 0.00 | 0.00 | 26 | 1012.2 |
| 20260505192056 | 31 | 227 | 3.2 | 9.7 | 0.00 | 0.00 | 0.00 | 28 | 1012.4 |
| 20260505191556 | 30 | 157 | 3.2 | 11.3 | 0.00 | 0.00 | 0.00 | 28 | 1012.5 |
| 20260505191053 | 30 | 140 | 3.2 | 12.9 | 0.00 | 0.00 | 0.00 | 28 | 1012.5 |
| 20260505190551 | 30 | 145 | 1.6 | 16.1 | 0.00 | 0.00 | 0.00 | 29 | 1012.6 |
| 20260505190050 | 30 | 216 | 3.2 | 16.1 | 0.00 | 0.00 | 0.00 | 28 | 1012.8 |
| 20260505185548 | 30 | 201 | 4.8 | 16.1 | 0.00 | 0.00 | 0.00 | 27 | 1012.8 |
| 20260505185046 | 30 | 148 | 6.4 | 16.1 | 0.00 | 0.00 | 0.00 | 26 | 1012.9 |
| 20260505184550 | 30 | 223 | 3.2 | 14.5 | 0.00 | 0.00 | 0.00 | 27 | 1012.9 |
| 20260505184044 | 30 | 227 | 4.8 | 14.5 | 0.00 | 0.00 | 0.00 | 26 | 1012.9 |
| 20260505183541 | 30 | 223 | 4.8 | 14.5 | 0.00 | 0.00 | 0.00 | 27 | 1013.0 |
| 20260505183045 | 30 | 240 | 6.4 | 22.5 | 0.00 | 0.00 | 0.00 | 26 | 1013.2 |
| 20260505182541 | 30 | 211 | 6.4 | 22.5 | 0.00 | 0.00 | 0.00 | 27 | 1013.2 |
| 20260505182037 | 30 | 271 | 4.8 | 14.5 | 0.00 | 0.00 | 0.00 | 28 | 1013.2 |
| 20260505181536 | 30 | 207 | 3.2 | 9.7 | 0.00 | 0.00 | 0.00 | 28 | 1013.4 |
| 20260505181039 | 30 | 219 | 4.8 | 9.7 | 0.00 | 0.00 | 0.00 | 27 | 1013.4 |
| 20260505180536 | 30 | 191 | 3.2 | 8.0 | 0.00 | 0.00 | 0.00 | 29 | 1013.4 |
| 20260505180031 | 30 | 225 | 3.2 | 12.9 | 0.00 | 0.00 | 0.00 | 30 | 1013.4 |
| 20260505175530 | 30 | 223 | 4.8 | 12.9 | 0.00 | 0.00 | 0.00 | 31 | 1013.4 |
| 20260505175028 | 30 | 180 | 3.2 | 9.7 | 0.00 | 0.00 | 0.00 | 30 | 1013.5 |
| 20260505174527 | 30 | 196 | 3.2 | 14.5 | 0.00 | 0.00 | 0.00 | 29 | 1013.5 |
| 20260505174026 | 29 | 184 | 3.2 | 14.5 | 0.00 | 0.00 | 0.00 | 29 | 1013.5 |
| 20260505173524 | 30 | 221 | 3.2 | 14.5 | 0.00 | 0.00 | 0.00 | 30 | 1013.6 |
| 20260505173022 | 30 | 198 | 6.4 | 14.5 | 0.00 | 0.00 | 0.00 | 29 | 1013.6 |
| 20260505172521 | 30 | 255 | 3.2 | 16.1 | 0.00 | 0.00 | 0.00 | 32 | 1013.6 |
| 20260505172020 | 29 | 199 | 4.8 | 16.1 | 0.00 | 0.00 | 0.00 | 33 | 1013.6 |
| 20260505171518 | 30 | 33 | 3.2 | 14.5 | 0.00 | 0.00 | 0.00 | 33 | 1013.6 |
| 20260505171017 | 30 | 209 | 3.2 | 12.9 | 0.00 | 0.00 | 0.00 | 35 | 1013.8 |
| 20260505170516 | 30 | 230 | 3.2 | 8.0 | 0.00 | 0.00 | 0.00 | 35 | 1014.0 |
| 20260505170015 | 30 | 108 | 1.6 | 8.0 | 0.00 | 0.00 | 0.00 | 36 | 1013.9 |
| 20260505165514 | 29 | 190 | 1.6 | 8.0 | 0.00 | 0.00 | 0.00 | 37 | 1014.2 |
| 20260505165011 | 29 | 196 | 1.6 | 11.3 | 0.00 | 0.00 | 0.00 | 37 | 1014.1 |
| 20260505164510 | 28 | 143 | 1.6 | 11.3 | 0.00 | 0.00 | 0.00 | 36 | 1014.2 |
| 20260505164008 | 28 | 165 | 3.2 | 14.5 | 0.00 | 0.00 | 0.00 | 36 | 1014.3 |
| 20260505163507 | 28 | 169 | 3.2 | 16.1 | 0.00 | 0.00 | 0.00 | 38 | 1014.3 |
| 20260505163006 | 28 | 225 | 1.6 | 16.1 | 0.00 | 0.00 | 0.00 | 38 | 1014.4 |
| 20260505162508 | 28 | 213 | 3.2 | 8.0 | 0.00 | 0.00 | 0.00 | 38 | 1014.5 |
| 20260505162004 | 28 | 134 | 1.6 | 6.4 | 0.00 | 0.00 | 0.00 | 37 | 1014.5 |
| 20260505161501 | 28 | 209 | 1.6 | 6.4 | 0.00 | 0.00 | 0.00 | 41 | 1014.6 |
| 20260505161100 | 28 | 67 | 1.6 | 8.0 | 0.00 | 0.00 | 0.00 | 40 | 1014.8 |
| 20260505160558 | 27 | 219 | 3.2 | 9.7 | 0.00 | 0.00 | 0.00 | 41 | 1014.8 |
| 20260505153052 | 26 | 237 | 1.6 | 8.0 | 0.00 | 0.00 | 0.00 | 45 | 1015.2 |
| 20260505152549 | 26 | 205 | 1.6 | 11.3 | 0.00 | 0.00 | 0.00 | 45 | 1015.2 |
| 20260505152044 | 26 | 212 | 1.6 | 6.4 | 0.00 | 0.00 | 0.00 | 44 | 1015.2 |
| 20260505151546 | 26 | 209 | 3.2 | 8.0 | 0.00 | 0.00 | 0.00 | 46 | 1015.2 |
| 20260505151042 | 25 | 221 | 1.6 | 12.9 | 0.00 | 0.00 | 0.00 | 46 | 1015.2 |
| 20260505150541 | 25 | 222 | 1.6 | 12.9 | 0.00 | 0.00 | 0.00 | 45 | 1015.2 |
| 20260505140525 | 22 | 194 | 3.2 | 12.9 | 0.00 | 0.00 | 0.00 | 52 | 1015.1 |
| 20260505125002 | 18 | 241 | 1.6 | 6.4 | 0.00 | 0.00 | 0.00 | 40 | 1015.2 |
| 20260505124603 | 17 | 242 | 1.6 | 6.4 | 0.00 | 0.00 | 0.00 | 40 | 1015.2 |
| 20260505124100 | 17 | 205 | 1.6 | 6.4 | 0.00 | 0.00 | 0.00 | 35 | 1015.2 |
| 20260505123556 | 17 | 198 | 1.6 | 4.8 | 0.00 | 0.00 | 0.00 | 33 | 1015.3 |
| 20260505123057 | 17 | 198 | 1.6 | 9.7 | 0.00 | 0.00 | 0.00 | 27 | 1015.3 |
| 20260505122553 | 16 | 158 | 1.6 | 9.7 | 0.00 | 0.00 | 0.00 | 25 | 1015.2 |
| 20260505122052 | 16 | 213 | 3.2 | 8.0 | 0.00 | 0.00 | 0.00 | 20 | 1015.2 |
| 20260505121551 | 16 | 234 | 1.6 | 8.0 | 0.00 | 0.00 | 0.00 | 15 | 1015.2 |
| 20260505121050 | 16 | 235 | 3.2 | 8.0 | 0.00 | 0.00 | 0.00 | 10 | 1015.0 |
| 20260505120548 | 15 | 243 | 3.2 | 11.3 | 0.00 | 0.00 | 0.00 | 4 | 1015.0 |
| 20260505120050 | 15 | 215 | 3.2 | 11.3 | 0.00 | 0.00 | 0.00 | 1 | 1014.9 |
| 20260505115545 | 15 | 194 | 3.2 | 6.4 | 0.00 | 0.00 | 0.00 | 1 | 1014.9 |
| 20260505115045 | 15 | 196 | 1.6 | 6.4 | 0.00 | 0.00 | 0.00 | 1 | 1014.9 |
| 20260505114542 | 15 | 109 | 1.6 | 6.4 | 0.00 | 0.00 | 0.00 | 1 | 1014.9 |